Terug naar catalogus

STARLINK-11341

ActiefCommunicatieVLEO
NORAD 61696·PAYLOAD·🇺🇸 United States

Gelanceerd Oct 30, 2024 vanaf Vandenberg Space Force Base

Loading…

Volgende Passages (komende 24 uur)

TLE

VersSource: CelesTrak SupGP

Epoch: Sep 15, 2026, 02:02 UTC

1 61696C 24195K   26258.08520833 -.00046008  00000+0 -37893-3 0  2581
2 61696  53.1570 172.4490 0001185  84.8364 234.5697 15.69736005    15

Volg STARLINK-11341 in realtime met AllMySat

Download on the App Store